MORELOS 3

Last updated on Sun Apr 12 2026 00:02:54 GMT+0000 (Coordinated Universal Time)

1 40946U 15056A 26101.49824397 -.00000040 00000+0 00000+0 0 9999 2 40946 3.1368 13.2200 0003381 357.4688 255.2850 1.00272086 38611
UTC large
Height (km)
Speed (km/s)
/
Latitude / Longitude
Inclination (degrees)
Orbital Period (minutes)
Azimuth
Elevation
Range (km)
Doppler Factor

Next 0 passes for location: London (51.5072 / 0.1276)

Sorry there are no passes over London.
MORELOS 3